Regional Weather Roundup
Issued by NWS

Home | Current Version | Previous Version | Graphics & Text | Print | Product List | Glossary On
Versions: 1 2 3 4 5 6 7 8 9 10 11 12 13 14 15 16 17 18 19 20 21 22 23 24 25 26 27 28 29 30 31 32 33 34 35 36 37 38 39 40 41 42 43 44 45 46 47 48 49 50
000
ASUS43 KLOT 272108
RWRIL

ILLINOIS REGIONAL WEATHER ROUNDUP
NATIONAL WEATHER SERVICE CHICAGO/ROMEOVILLE IL
400 PM CDT MON JUL 27 2015

NOTE: "FAIR" INDICATES FEW OR NO CLOUDS BELOW 12,000 FEET WITH NO
SIGNIFICANT WEATHER AND/OR OBSTRUCTIONS TO VISIBILITY.

* THESE STATIONS ARE NOT UNDER NWS QUALITY CONTROL. THEY ALSO MAY NOT
  REPORT WEATHER SUCH AS PRECIPITATION OR FOG.

ILZ001-002-007-009-015-016-024-272200-
NORTHWEST ILLINOIS

CITY           SKY/WX    TMP DP  RH WIND       PRES   REMARKS
MOLINE         PTSUNNY   86  72  62 SE10      29.96F HX  92
STERLING*      PTSUNNY   86  72  62 E8        29.96F HX  92
SAVANNA*       CLOUDY    88  69  54 E5        29.97F HX  92
$$

ILZ003-004-008-010-011-017-018-272200-
NORTH CENTRAL ILLINOIS

CITY           SKY/WX    TMP DP  RH WIND       PRES   REMARKS
ROCKFORD       PTSUNNY   88  66  48 E7        29.99F HX  90
FREEPORT*      PTSUNNY   84  69  60 SE6       30.00F HX  87
ROCHELLE*      PTSUNNY   84  70  63 SE5       29.99F HX  89
DE KALB*       SUNNY     85  65  50 E7        30.00F HX  87
PERU*          MOSUNNY   87  68  54 E8        29.97F HX  90
$$

ILZ005-006-012>014-019>023-272200-
NORTHEAST ILLINOIS

CITY           SKY/WX    TMP DP  RH WIND       PRES   REMARKS
CHICAGO-OHARE  MOSUNNY   87  61  41 NE14      29.99S HX  87
CHICAGO-MIDWAY MOSUNNY   89  61  38 NE13      29.99S HX  89
AURORA         SUNNY     89  60  37 SE10      29.99F HX  89
LANSING*       SUNNY     88  50  27 NE10      29.99F HX  85
JOLIET*        SUNNY     90  64  43 SE7       29.98S HX  91
WAUKEGAN       SUNNY     81  63  54 E7        30.02S HX  82
DUPAGE AIRPORT SUNNY     89  60  37 S10       29.98F HX  89
KANKAKEE*      PTSUNNY   85  71  62 E9        29.97F HX  90
WHEELING       SUNNY     84  63  49 E10       30.02S HX  85
MORRIS*        MOSUNNY   86  70  59 E8        29.96F HX  91
ROMEOVILLE*    SUNNY     89  54  30 SE9       29.99S HX  86
NORTHERLY ISL    N/A     80  68  66 MISG        N/A  HX  83
$$

LMZ740>746-272200-
SOUTHERN LAKE MICHIGAN

STATION/POSITION SKY/WX   TEMP    WIND        PRES    VSBY  WAVE
                          AIR SEA DIR/SP/G                  HT/PER
                          (F)     (DEG/KT/KT) (MB)    (MI)  (FT/S)
HARRISON CRIB              75      40/ 10/ 11   N/A
BURNHAM HARBOR             81     350/  5/  9   N/A
CALUMET HARBOR             79      10/ 10/ 12   N/A
BURNS HARBOR               75      20/ 10/ 13 1016.3S
MICHIGAN CITY              78     360/  7/ 11   N/A
MICHIGAN CITY 6N           77 76   40/ 10/ 12   N/A           1/ 2
ST. JOSEPH                 76 76   50/ 10/ 12   N/A           1
$$

ILZ025>027-034>036-040-047-049-050-058-095>099-272200-
WEST-CENTRAL ILLINOIS

CITY           SKY/WX    TMP DP  RH WIND       PRES   REMARKS
QUINCY         CLOUDY    88  74  63 VRB3      29.92F HX  96
GALESBURG*     PTSUNNY   85  72  65 E5        29.96F HX  90
MACOMB*        PTSUNNY   85  75  73 NE7       29.97F HX  94
JACKSONVILLE*  SUNNY     90  75  61 NE3       29.92F HX 101
PITTSFIELD*    PTSUNNY   90  76  64 NE6       29.93F HX 102
$$

ILZ028>032-037-038-041>044-048-051>054-059>061-272200-
CENTRAL ILLINOIS

CITY           SKY/WX    TMP DP  RH WIND       PRES   REMARKS
PONTIAC        MOSUNNY   87  75  68 SE7       29.98S HX  96
BLOOMINGTON    MOSUNNY   88  73  60 E8        29.98F HX  95
DECATUR        MOSUNNY   87  73  62 E6        29.95F HX  94
PEORIA         MOSUNNY   86  71  60 E3        29.96F HX  91
LACON*         MOSUNNY   84  71  65 SE6       29.95F HX  89
LINCOLN*       SUNNY     88  72  58 E6        29.93F HX  94
SPRINGFIELD    MOSUNNY   91  74  57 VRB5      29.93F HX 100
TAYLORVILLE    CLOUDY    86  73  66 E3        29.93F HX  93
$$

ILZ033-039-045-046-055>057-062-063-272200-
EAST-CENTRAL ILLINOIS

CITY           SKY/WX    TMP DP  RH WIND       PRES   REMARKS
CHAMPAIGN      MOSUNNY   84  73  69 VRB3      29.96F HX  90
DANVILLE*      MOSUNNY   83  73  71 CALM      29.94F HAZE    HX  89
RANTOUL*       PTSUNNY   85  73  68 SE7       29.96F HX  92
MATTOON        PTSUNNY   88  73  61 NE9       29.93F HX  95
PARIS*         MOSUNNY   86  74  68 CALM      29.96F HX  94
$$

ILZ079-100>102-272200-
SOUTHWEST ILLINOIS

CITY           SKY/WX    TMP DP  RH WIND       PRES   REMARKS
ALTON          MOSUNNY   88  79  74 CALM      29.90F HX 102
BELLEVILLE     PTSUNNY   81  73  75 W8        29.90F THUNDER HX  86
CAHOKIA*       CLOUDY    86  72  62 SE12      29.90F THUNDER HX  92
SPARTA*        TSTM      86  78  77 NE14      29.91F HX  98
$$

ILZ064>066-069>071-074>076-080>082-084>086-088>090-092>094-272200-
SOUTH-CENTRAL ILLINOIS

CITY           SKY/WX    TMP DP  RH WIND       PRES   REMARKS
CARBONDALE     PTSUNNY   92  79  65 SE5       29.90F HX 108
CAIRO*         MOSUNNY   91  80  69 S7        29.91F HX 109
EFFINGHAM*     MOSUNNY   89  69  52 CALM      29.94F HX  93
MARION         PTSUNNY   93  79  62 S6        29.91F HX 110
MT. VERNON     CLOUDY    88  75  66 E6        29.91F HX  97
CENTRALIA*     MOSUNNY   89  74  61 CALM      29.91F HX  98
SALEM*         SUNNY     91  75  60 CALM      29.92F HX 101
METROPOLIS*    PTSUNNY   90  81  75 S3        29.92F HX 109
$$

ILZ067-068-072-073-078-083-087-091-272200-
SOUTHEAST ILLINOIS

CITY           SKY/WX    TMP DP  RH WIND       PRES   REMARKS
LAWRENCEVILLE  MOSUNNY   88  75  65 CALM      29.93F HX  97
FLORA*         SUNNY     90  74  59 S3        29.92F HX  99
FAIRFIELD*     MOSUNNY   87  78  73 CALM      29.91F HX  99
HARRISBURG*    MOSUNNY   90  80  70 SE3       29.92F HX 107
ROBINSON*      MOSUNNY   89  73  59 CALM      29.93F HX  96
CARMI*         MOSUNNY   88  72  60 E6        29.92F HX  94
$$

ABBREVIATIONS USED IN REMARKS
   TC - TEMPERATURE IN CELSIUS
  WCI - WIND CHILL INDEX
   HX - HEAT INDEX
  VSB - VISIBILITY
$$




USA.gov is the U.S. government's official web portal to all federal, state and local government web resources and services.